Location: Chemnitz
(49.5500°N, 11.5830°E)
Time: 21:59:56
(UTC+01:00)

ISS - Pass Details

Date: 15 November 2017
Orbit: 402 x 407 km, 51.6° (Epoch: 21 November)

Event Time Altitude Azimuth Distance (km) Brightness Sun altitude
Exits shadow 04:55:21 30° 128° (SE) 750 -2.1 -24.1°
Drops below altitude 10° 04:57:09 10° 120° (ESE) 1,452 -0.2 -23.8°
Sets 04:59:14 0° 118° (ESE) 2,309 1.0 -23.5°
